Location: Knowlton
(51.2333°N, 1.2667°E)
Time: 09:47:18
(UTC+00:00)

Cosmos 2251 Rocket - Pass Details

Date: 18 April 2021
Orbit: 765 x 791 km, 74.0° (Epoch: 05 May)

Event Time Altitude Azimuth Distance (km) Brightness Sun altitude
Rises 19:55:07 0° 183° (S) 3,275 6.5 -9.1°
Reaches altitude 10° 19:57:34 10° 178° (S) 2,349 5.7 -9.5°
Maximum altitude 20:02:39 47° 106° (ESE) 1,043 3.8 -10.2°
Drops below altitude 10° 20:07:45 10° 34° (NE) 2,353 6.0 -10.8°
Sets 20:10:13 0° 29° (NNE) 3,282 6.8 -11.1°
